RADUGA 26 (21016 NORAD) Tracking and Keplerian Element Data

This shows tracking and keplerian element data for the satellite.

Feedback or suggestion? Click here.




ElementValue
Catalog21016
NameRADUGA 26
Epoch Orbit12846
Epoch Day353.99633368
Epoch Year2025
RAAN339.1601
Inclination12.9959
Eccentricity0.0002329
Argument of Perigee132.2273
Mean Anonmoly55.7159
Mean Motion1.00223584
Decay Rate-1.23E-06
L11 21016U 90112A 25353.99633368 -.00000123 00000+0 00000+0 0 9993
L22 21016 12.9959 339.1601 0002329 132.2273 55.7159 1.00223584128464



Live tracking and technical data element details for RADUGA 26 (NORAD 21016). RADUGA 26 can be tracked NOW for your location showing map with azimuth and elevation plus other details from your city location.







IsCatalogInMostPopularTable: catalog: 21016, numindb: 387
Update: records affected: 1



GetName: 21016 RADUGA 26

Hit Count: updated at: Thu, 16 Apr 2026 05:06:33 GMT